When you browse on this site, cookies collect data to enhance your experience and personalize the content and advertising you see.
Visit our Privacy Policy to learn more. By continuing to use the site, you agree to this use of cookies and data.
EN

Hourly Weather Cullera

Today, 6 August, Thursday

Time Temperature Precipitation Wind Pressure Humidity
00:00 +26°C° 0 mm 2 mps 757 mmHg 75%
01:00 +25°C° 0 mm 2 mps 757 mmHg 76%
02:00 +25°C° 0 mm 2 mps 757 mmHg 77%
03:00 +25°C° 0 mm 2 mps 757 mmHg 78%
04:00 +25°C° 0 mm 2 mps 757 mmHg 77%
05:00 +25°C° 0 mm 2 mps 757 mmHg 77%
06:00 +25°C° 0 mm 1 mps 758 mmHg 76%
07:00 +27°C° 0 mm 1 mps 758 mmHg 69%
08:00 +29°C° 0 mm 1 mps 758 mmHg 62%
09:00 +30°C° 0 mm 1 mps 758 mmHg 56%
10:00 +32°C° 0 mm 2 mps 758 mmHg 49%
11:00 +35°C° 0 mm 3 mps 758 mmHg 43%
12:00 +37°C° 0 mm 4 mps 758 mmHg 36%
13:00 +37°C° 0 mm 5 mps 758 mmHg 36%
14:00 +38°C° 0 mm 6 mps 757 mmHg 36%
15:00 +38°C° 0 mm 6 mps 757 mmHg 36%
16:00 +35°C° 0 mm 6 mps 757 mmHg 39%
17:00 +34°C° 0 mm 6 mps 757 mmHg 42%
18:00 +33°C° 0 mm 6 mps 757 mmHg 46%
19:00 +30°C° 0 mm 5 mps 758 mmHg 53%
20:00 +29°C° 0 mm 4 mps 758 mmHg 60%
21:00 +27°C° 0 mm 4 mps 758 mmHg 67%
22:00 +26°C° 0 mm 4 mps 759 mmHg 67%
23:00 +26°C° 0 mm 3 mps 759 mmHg 67%

Tomorrow, 7 August, Friday

Time Temperature Precipitation Wind Pressure Humidity
00:00 +26°C° 0 mm 3 mps 759 mmHg 68%
01:00 +25°C° 0 mm 2 mps 759 mmHg 67%
02:00 +25°C° 0 mm 2 mps 758 mmHg 67%
03:00 +25°C° 0 mm 1 mps 758 mmHg 67%
04:00 +25°C° 0 mm 1 mps 759 mmHg 65%
05:00 +26°C° 0 mm 1 mps 759 mmHg 63%
06:00 +26°C° 0 mm 1 mps 759 mmHg 61%
07:00 +28°C° 0 mm 1 mps 759 mmHg 54%
08:00 +30°C° 0 mm 1 mps 759 mmHg 46%
09:00 +32°C° 0 mm 1 mps 759 mmHg 39%
10:00 +35°C° 0 mm 2 mps 759 mmHg 35%
11:00 +37°C° 0 mm 4 mps 759 mmHg 31%
12:00 +40°C° 0 mm 5 mps 759 mmHg 27%
13:00 +40°C° 0 mm 5 mps 758 mmHg 27%
14:00 +40°C° 0 mm 6 mps 758 mmHg 27%
15:00 +41°C° 0 mm 6 mps 758 mmHg 26%
16:00 +39°C° 0 mm 6 mps 758 mmHg 30%
17:00 +38°C° 0 mm 6 mps 758 mmHg 33%
18:00 +35°C° 0 mm 6 mps 758 mmHg 36%
19:00 +33°C° 0 mm 5 mps 758 mmHg 46%
20:00 +30°C° 0 mm 5 mps 759 mmHg 56%
21:00 +27°C° 0 mm 4 mps 759 mmHg 66%
22:00 +27°C° 0 mm 3 mps 759 mmHg 64%
23:00 +27°C° 0 mm 2 mps 759 mmHg 62%

Day after tomorrow, 8 August, Saturday

Time Temperature Precipitation Wind Pressure Humidity
00:00 +27°C° 0 mm 2 mps 759 mmHg 59%
01:00 +26°C° 0 mm 1 mps 759 mmHg 59%
02:00 +26°C° 0 mm 1 mps 759 mmHg 58%
03:00 +26°C° 0 mm 1 mps 759 mmHg 58%
04:00 +26°C° 0 mm 1 mps 759 mmHg 55%
05:00 +27°C° 0 mm 1 mps 759 mmHg 51%
06:00 +27°C° 0 mm 1 mps 759 mmHg 48%
07:00 +30°C° 0 mm 2 mps 759 mmHg 40%
08:00 +34°C° 0 mm 2 mps 759 mmHg 32%
09:00 +37°C° 0 mm 3 mps 759 mmHg 24%
10:00 +38°C° 0 mm 4 mps 759 mmHg 23%
11:00 +40°C° 0 mm 5 mps 759 mmHg 22%
12:00 +42°C° 0 mm 6 mps 759 mmHg 21%
13:00 +42°C° 0 mm 6 mps 758 mmHg 21%
14:00 +43°C° 0 mm 7 mps 758 mmHg 21%
15:00 +43°C° 0 mm 7 mps 757 mmHg 21%
16:00 +40°C° 0 mm 7 mps 757 mmHg 24%
17:00 +39°C° 0 mm 7 mps 757 mmHg 27%
18:00 +38°C° 0 mm 6 mps 757 mmHg 30%
19:00 +34°C° 0 mm 6 mps 757 mmHg 40%
20:00 +32°C° 0 mm 5 mps 758 mmHg 50%
21:00 +28°C° 0 mm 4 mps 758 mmHg 60%
22:00 +28°C° 0 mm 4 mps 758 mmHg 65%
23:00 +27°C° 0 mm 3 mps 758 mmHg 70%

9 August, Sunday

Time Temperature Precipitation Wind Pressure Humidity
00:00 +26°C° 0 mm 2 mps 758 mmHg 75%
01:00 +26°C° 0 mm 2 mps 757 mmHg 75%
02:00 +25°C° 0 mm 2 mps 757 mmHg 75%
03:00 +25°C° 0 mm 2 mps 757 mmHg 75%
04:00 +26°C° 0 mm 2 mps 757 mmHg 72%
05:00 +26°C° 0 mm 1 mps 757 mmHg 68%
06:00 +26°C° 0 mm 1 mps 757 mmHg 65%
07:00 +29°C° 0 mm 1 mps 757 mmHg 54%
08:00 +32°C° 0 mm 1 mps 757 mmHg 43%
09:00 +34°C° 0 mm 1 mps 757 mmHg 32%
10:00 +37°C° 0 mm 2 mps 757 mmHg 30%
11:00 +38°C° 0 mm 3 mps 757 mmHg 27%
12:00 +41°C° 0 mm 4 mps 757 mmHg 25%
13:00 +41°C° 0 mm 5 mps 756 mmHg 26%
14:00 +40°C° 0 mm 5 mps 756 mmHg 28%
15:00 +40°C° 0 mm 6 mps 755 mmHg 29%
16:00 +38°C° 0 mm 6 mps 755 mmHg 34%
17:00 +36°C° 0 mm 6 mps 755 mmHg 39%
18:00 +34°C° 0 mm 5 mps 755 mmHg 43%
19:00 +32°C° 0 mm 5 mps 755 mmHg 52%
20:00 +29°C° 0 mm 4 mps 756 mmHg 61%
21:00 +27°C° 0 mm 3 mps 756 mmHg 70%
22:00 +27°C° 0 mm 2 mps 756 mmHg 71%
23:00 +26°C° 0 mm 2 mps 756 mmHg 72%

10 August, Monday

Time Temperature Precipitation Wind Pressure Humidity
00:00 +26°C° 0 mm 2 mps 756 mmHg 72%
01:00 +26°C° 0 mm 1 mps 756 mmHg 73%
02:00 +25°C° 0 mm 1 mps 756 mmHg 75%
03:00 +25°C° 0 mm 1 mps 755 mmHg 76%
04:00 +25°C° 0 mm 1 mps 756 mmHg 75%
05:00 +26°C° 0 mm 1 mps 756 mmHg 74%
06:00 +26°C° 0 mm 1 mps 756 mmHg 73%
07:00 +28°C° 0 mm 2 mps 756 mmHg 66%
08:00 +30°C° 0 mm 2 mps 756 mmHg 58%
09:00 +32°C° 0 mm 2 mps 756 mmHg 51%
10:00 +35°C° 0 mm 2 mps 756 mmHg 45%
11:00 +36°C° 0 mm 3 mps 756 mmHg 40%
12:00 +38°C° 0 mm 3 mps 756 mmHg 34%
13:00 +38°C° 0 mm 4 mps 756 mmHg 33%
14:00 +38°C° 0 mm 4 mps 755 mmHg 33%
15:00 +39°C° 0 mm 5 mps 755 mmHg 32%
16:00 +36°C° 0 mm 5 mps 755 mmHg 37%
17:00 +35°C° 0 mm 4 mps 755 mmHg 43%
18:00 +33°C° 0 mm 4 mps 755 mmHg 48%
19:00 +30°C° 0 mm 3 mps 756 mmHg 57%
20:00 +28°C° 0 mm 2 mps 757 mmHg 67%
21:00 +27°C° 0 mm 1 mps 757 mmHg 76%
22:00 +26°C° 0 mm 1 mps 757 mmHg 78%
23:00 +26°C° 0 mm 1 mps 757 mmHg 81%

11 August, Tuesday

Time Temperature Precipitation Wind Pressure Humidity
00:00 +25°C° 0 mm 1 mps 758 mmHg 83%
01:00 +25°C° 0 mm 1 mps 757 mmHg 83%
02:00 +25°C° 0 mm 1 mps 757 mmHg 83%
03:00 +25°C° 0 mm 1 mps 757 mmHg 84%
04:00 +25°C° 0 mm 1 mps 757 mmHg 81%
05:00 +25°C° 0 mm 2 mps 757 mmHg 79%
06:00 +26°C° 0 mm 2 mps 758 mmHg 77%
07:00 +28°C° 0 mm 2 mps 758 mmHg 67%
08:00 +30°C° 0 mm 2 mps 758 mmHg 58%
09:00 +32°C° 0 mm 2 mps 758 mmHg 48%
10:00 +35°C° 0 mm 2 mps 758 mmHg 42%
11:00 +37°C° 0 mm 3 mps 758 mmHg 37%
12:00 +38°C° 0 mm 3 mps 757 mmHg 31%
13:00 +38°C° 0 mm 4 mps 757 mmHg 32%
14:00 +38°C° 0 mm 4 mps 757 mmHg 33%
15:00 +39°C° 0 mm 5 mps 756 mmHg 34%
16:00 +36°C° 0 mm 4 mps 756 mmHg 39%
17:00 +35°C° 0 mm 4 mps 757 mmHg 43%
18:00 +33°C° 0 mm 4 mps 757 mmHg 48%
19:00 +31°C° 0 mm 3 mps 757 mmHg 58%
20:00 +29°C° 0 mm 2 mps 757 mmHg 68%
21:00 +27°C° 0 mm 2 mps 758 mmHg 78%
22:00 +26°C° 0 mm 1 mps 758 mmHg 79%
23:00 +26°C° 0 mm 1 mps 758 mmHg 80%
Show more